Flag for Switzerland Weather past 2 weeks in Stans, Nidwalden, Switzerland

Now
46 °F

Cool.


Feels Like: 41 °F
Forecast: 31 / 49 °F
Wind: 9 mph from Southwest

Location: Giswil

Current Time: Oct 22, 2014 at 3:13:38 AM

Latest Report: Oct 22, 2014 at 2:00 AM


Visibility: N/A

Pressure: 30.11 "Hg

Humidity: 76%

Dew point: 39 °F

Location of StansLocation

Historic Weather in Stans — Graph

°F

Stans temperature yesterday

Maximum temperature yesterday: 70 °F (at 3:00 PM)
Minimum temperature yesterday: 48 °F (at 10:00 PM)
Average temperature yesterday: 60 °F

Past Weeks' High & Low Weather Summary

 TemperatureHumidityPressure
High74 °F (Oct 9, 4:00 PM)100% (Oct 8, 4:00 AM)30.31 "Hg (Oct 8, 4:00 AM)
Low42 °F (Oct 19, 8:00 AM)40% (Oct 21, 6:00 PM)29.75 "Hg (Oct 21, 7:00 PM)
Average56 °F90%29.97 "Hg
* Reported Oct 7 1:00 AM — Oct 22 1:00 AM, Stans, Weather by CustomWeather, © 2014

Note: Actual official high and low records may vary slightly from our data, if they occured in-between our weather recording intervals... More about our weather records

Advertising

Stans weather history for previous 24 hours

 ConditionsComfort  
Time TempWeatherWind HumidityBarometerVisibility
1:00 AM
Oct 22
46 °FCool.7 mph75%30.13 "HgN/A
12:00 AM52 °FCool.12 mph55%30.09 "HgN/A
11:00 PM
Oct 21
48 °FCool.3 mph80%30.10 "HgN/A
10:00 PM48 °FCool.8 mph77%30.07 "HgN/A
9:00 PM60 °FCool.23 mph65%29.81 "HgN/A
8:00 PM64 °FMild.14 mph55%29.76 "HgN/A
7:00 PM67 °FMild.13 mph43%29.75 "HgN/A
6:00 PM69 °FMild.15 mph40%29.75 "HgN/A
5:00 PM68 °FMild.16 mph44%29.79 "HgN/A
4:00 PM65 °FMild.16 mph55%29.85 "HgN/A
3:00 PM70 °FMild.12 mph50%29.84 "HgN/A
2:00 PM67 °FMild.5 mph68%29.88 "HgN/A
1:00 PM64 °FMild.7 mph81%29.90 "HgN/A
12:00 PM62 °FCool.3 mph86%29.94 "HgN/A
11:00 AM61 °FCool.2 mph90%29.97 "HgN/A
10:00 AM59 °FCool.1 mph100%29.99 "HgN/A
9:00 AM58 °FCool.2 mph95%30.00 "HgN/A
8:00 AM58 °FCool.2 mph100%29.99 "HgN/A
7:00 AM57 °FCool.2 mph100%30.00 "HgN/A
6:00 AM57 °FCool.2 mph100%30.01 "HgN/A
5:00 AM57 °FCool.1 mph100%30.03 "HgN/A
4:00 AM58 °FCool.2 mph100%30.05 "HgN/A
3:00 AM57 °FCool.1 mph100%30.03 "HgN/A
Weather by CustomWeather, © 2014

See weather overviewHow to use our weather pages